Location: 3 Angels Observatory
(30.5437°N, 88.5068°W)
Time: 18:39:07
(UTC-06:00)

Amateur Radio Satellites - All Passes

Search period start: 20 February 2017 18:09
Search period end: 21 February 2017 18:09
Location: 3 Angels Observatory, 30.5437°N, 88.5068°W

Satellite Date Start Highest point End Downlink Frequencies (MHz)
Time Altitude Azimuth
CUBEBUG 2 20 Feb 18:12:53 18:13:36 10° 66° (ENE) 18:14:19 437.445
XW-2F 20 Feb 18:13:07 18:16:05 21° 264° (W) 18:19:04 145.980 - 146.000
XW-2D 20 Feb 18:14:34 18:17:22 19° 264° (W) 18:20:13 145.860 - 145.880
KAITUO 1B 20 Feb 18:17:27 18:20:27 22° 264° (W) 18:23:29 145.475/437.950
XW-2B 20 Feb 18:19:42 18:22:18 17° 265° (W) 18:24:56 145.730 - 145.750
SEEDS 20 Feb 18:20:24 18:23:35 21° 71° (ENE) 18:26:46 437.485
BEESAT 2 20 Feb 18:20:51 18:23:34 18° 251° (WSW) 18:26:16 435.950
AAUSAT CUBESAT 2 20 Feb 18:27:59 18:29:16 11° 68° (ENE) 18:30:32 437.432
XW-2C 20 Feb 18:28:51 18:30:45 13° 266° (W) 18:32:41 145.795 - 145.815
STRAND 1 20 Feb 18:29:15 18:33:33 26° 97° (E) 18:37:48 437.568
XW-2A 20 Feb 18:30:03 18:33:24 78° 77° (ENE) 18:36:47 145.665 - 145.685
CUTE 1.7 + AOD 2 20 Feb 18:47:06 18:51:22 75° 77° (ENE) 18:55:39 437.475
UWE-3 20 Feb 18:58:46 19:02:14 23° 71° (ENE) 19:05:46 435.000/436.395/437.385
Oscar 11 20 Feb 19:03:40 19:05:05 11° 68° (ENE) 19:06:30 .
HO-68 20 Feb 19:16:53 19:23:56 59° 258° (WSW) 19:31:01 435.675
ZACube-1 20 Feb 19:31:36 19:35:29 33° 73° (ENE) 19:39:28 437.345
CUBEBUG 2 20 Feb 19:45:28 19:49:38 52° 261° (W) 19:53:58 437.445
SEEDS 20 Feb 19:55:41 19:59:05 23° 264° (W) 20:02:30 437.485
AAUSAT CUBESAT 2 20 Feb 20:00:19 20:04:17 43° 261° (W) 20:08:15 437.432
RS-15 20 Feb 20:00:34 20:10:04 26° 317° (NW) 20:19:54 29.354- 29.394
STRAND 1 20 Feb 20:08:16 20:12:35 28° 290° (WNW) 20:16:53 437.568
YUBILEINY 20 Feb 20:13:33 20:17:00 13° 68° (ENE) 20:20:25 435.215
AO-73 20 Feb 20:22:48 20:27:05 62° 260° (W) 20:31:31 145.935
UWE-3 20 Feb 20:35:10 20:38:32 22° 265° (W) 20:42:01 435.000/436.395/437.385
Oscar 11 20 Feb 20:36:33 20:40:44 47° 260° (W) 20:44:57 .
PRISM 20 Feb 20:37:27 20:40:37 22° 97° (E) 20:43:47 437.425
DELFI C3 20 Feb 20:45:15 20:49:09 59° 77° (ENE) 20:53:04 145.870
UNISAT 6 20 Feb 20:47:37 20:49:12 12° 93° (E) 20:50:47 437.425
TIGRISAT 20 Feb 20:49:48 20:51:10 11° 93° (E) 20:52:32 435.000
ZACube-1 20 Feb 21:09:08 21:11:48 16° 266° (W) 21:14:31 437.345
JUGNU 20 Feb 21:34:33 21:37:59 16° 164° (SSE) 21:41:27 437.505
ESTCUBE 1 20 Feb 21:47:33 21:50:42 19° 70° (ENE) 21:53:50 437.505/2401.250
SO-50 20 Feb 21:50:25 21:53:49 20° 110° (ESE) 21:57:12 436.795
FO-29 20 Feb 22:06:05 22:13:21 46° 98° (E) 22:19:56 435.910
YUBILEINY 20 Feb 22:06:08 22:14:54 86° 83° (E) 22:23:36 435.215
PRISM 20 Feb 22:12:43 22:15:44 20° 289° (WNW) 22:18:46 437.425
UNISAT 6 20 Feb 22:21:33 22:26:06 51° 285° (WNW) 22:30:36 437.425
TIGRISAT 20 Feb 22:23:29 22:28:03 53° 285° (WNW) 22:32:35 435.000
VELOX 1 20 Feb 22:35:36 22:38:48 20° 70° (ENE) 22:42:00 145.980
DUCHIFAT 1 20 Feb 22:46:14 22:48:52 16° 95° (E) 22:51:29 145.980
DX 1 20 Feb 22:46:56 22:47:50 11° 67° (ENE) 22:48:46 434.975-435.025
O/OREOS (USA 219) 20 Feb 22:47:31 22:51:46 45° 105° (ESE) 22:56:03 437.305
EO-79 20 Feb 22:50:13 22:53:34 22° 96° (E) 22:56:54 145.935-145.965
AIST 2D 20 Feb 22:54:21 22:57:46 43° 99° (E) 23:01:09 435.315
POLYITAN 1 20 Feb 23:05:34 23:09:31 35° 98° (E) 23:13:25 437.675
UKube-1 20 Feb 23:08:11 23:10:22 14° 68° (ENE) 23:12:32 .
QB50P2 20 Feb 23:08:12 23:12:16 41° 99° (E) 23:16:17 145.880/145.840
NANOSAT C BR1 20 Feb 23:10:03 23:13:59 36° 99° (E) 23:17:54 145.865
SPROUT 20 Feb 23:21:35 23:25:44 56° 75° (ENE) 23:29:54 437.525
JUGNU 20 Feb 23:21:37 23:26:26 26° 173° (S) 23:31:18 437.505
ESTCUBE 1 20 Feb 23:23:15 23:27:13 30° 262° (W) 23:31:12 437.505/2401.250
SO-50 20 Feb 23:29:46 23:34:02 33° 302° (WNW) 23:38:15 436.795
FO-29 20 Feb 23:51:34 23:57:54 29° 294° (WNW) 00:03:49 435.910
50 SAT 20 Feb 23:53:44 23:57:11 52° 260° (W) 00:00:37 437.505
BUGSAT 1 21 Feb 00:03:11 00:07:15 45° 100° (E) 00:11:19 437.445
Oscar 19 21 Feb 00:04:55 00:06:34 11° 93° (E) 00:08:13 437.125/150
YUBILEINY 21 Feb 00:06:35 00:10:27 14° 280° (W) 00:14:20 435.215
VELOX 1 21 Feb 00:11:21 00:15:02 26° 263° (W) 00:18:43 145.980
SRMSAT 21 Feb 00:12:02 00:15:44 17° 164° (SSE) 00:19:26 437.500
DX 1 21 Feb 00:19:20 00:23:31 50° 259° (W) 00:27:44 434.975-435.025
DUCHIFAT 1 21 Feb 00:20:47 00:24:31 31° 287° (WNW) 00:28:15 145.980
EO-79 21 Feb 00:25:50 00:29:11 23° 289° (WNW) 00:32:31 145.935-145.965
O/OREOS (USA 219) 21 Feb 00:29:27 00:31:22 12° 299° (WNW) 00:33:19 437.305
UKube-1 21 Feb 00:42:01 00:46:01 38° 261° (W) 00:50:01 .
POLYITAN 1 21 Feb 00:42:32 00:44:57 15° 291° (WNW) 00:47:21 437.675
RS-15 21 Feb 00:43:28 00:50:24 16° 32° (NNE) 00:57:13 29.354- 29.394
QB50P2 21 Feb 00:45:45 00:47:37 13° 292° (WNW) 00:49:29 145.880/145.840
NANOSAT C BR1 21 Feb 00:47:04 00:49:20 14° 291° (WNW) 00:51:37 145.865
JUGNU 21 Feb 01:09:57 01:14:58 29° 183° (S) 01:20:01 437.505
MOZHAYETS 4 21 Feb 01:37:43 01:39:48 13° 67° (ENE) 01:41:54
BUGSAT 1 21 Feb 01:40:52 01:42:08 11° 292° (WNW) 01:43:26 437.445
Oscar 19 21 Feb 01:41:07 01:46:09 59° 286° (WNW) 01:51:10 437.125/150
Gurwin Techsat 1B 21 Feb 01:45:15 01:50:36 77° 103° (ESE) 01:55:54 435.225
ITUPSAT 1 21 Feb 01:56:22 02:01:08 72° 77° (ENE) 02:05:57 437.325
SRMSAT 21 Feb 01:59:24 02:04:22 27° 173° (S) 02:09:20 437.500
ITAMSAT 1 21 Feb 02:05:02 02:08:29 18° 95° (E) 02:11:57 435.822/435.867
BEESAT 21 Feb 02:06:25 02:11:11 85° 256° (WSW) 02:16:00 436.000
PCSat 21 Feb 02:19:22 02:24:39 51° 63° (ENE) 02:29:54 145.827
KKS-1 21 Feb 02:44:18 02:47:14 18° 69° (ENE) 02:50:10 437.445
RS-15 21 Feb 02:54:08 03:06:14 60° 58° (ENE) 03:17:43 29.354- 29.394
JUGNU 21 Feb 02:59:10 03:03:28 21° 193° (SSW) 03:07:48 437.505
AO-7 21 Feb 03:03:43 03:11:46 52° 103° (ESE) 03:19:44 .
MOZHAYETS 4 21 Feb 03:12:02 03:16:29 47° 260° (W) 03:20:58
Gurwin Techsat 1B 21 Feb 03:29:15 03:29:48 10° 296° (WNW) 03:30:22 435.225
STARS 21 Feb 03:31:36 03:35:13 26° 71° (ENE) 03:38:50 437.465
AO-85 21 Feb 03:34:24 03:36:35 13° 109° (ESE) 03:38:42 145.980
ITAMSAT 1 21 Feb 03:43:09 03:48:02 41° 288° (WNW) 03:52:55 435.822/435.867
SRMSAT 21 Feb 03:47:59 03:53:05 29° 183° (S) 03:58:09 437.500
CUBESAT XI-V 21 Feb 03:57:45 04:02:25 74° 77° (ENE) 04:07:05 437.345
M-CUBED/EXP-1 PRIME 21 Feb 04:03:54 04:07:15 55° 72° (ENE) 04:10:29 437.505
PCSat 21 Feb 04:04:25 04:07:32 16° 256° (WSW) 04:10:38 145.827
KKS-1 21 Feb 04:19:37 04:23:31 31° 262° (W) 04:27:25 437.445
AO-7 21 Feb 04:57:13 05:04:03 30° 297° (WNW) 05:10:52 .
RS-15 21 Feb 05:07:43 05:17:54 34° 256° (WSW) 05:27:44 29.354- 29.394
STARS 21 Feb 05:08:18 05:11:28 20° 264° (W) 05:14:39 437.465
AO-85 21 Feb 05:12:08 05:16:40 47° 299° (WNW) 05:20:54 145.980
SRMSAT 21 Feb 05:37:27 05:41:44 20° 193° (SSW) 05:46:01 437.500
STRAND 1 21 Feb 05:40:05 05:43:55 22° 69° (ENE) 05:47:47 437.568
DOVE 4 21 Feb 05:41:25 05:45:59 51° 100° (E) 05:50:49 437.250
XW-2F 21 Feb 05:49:57 05:53:42 55° 100° (E) 05:57:24 145.980 - 146.000
XW-2D 21 Feb 05:51:31 05:55:19 63° 100° (E) 05:59:04 145.860 - 145.880
KAITUO 1B 21 Feb 05:53:28 05:57:08 50° 99° (E) 06:00:46 145.475/437.950
CUTE-I 21 Feb 05:54:52 06:00:09 55° 101° (E) 06:05:24 437.470
XW-2B 21 Feb 05:56:25 06:00:15 72° 100° (E) 06:04:02 145.730 - 145.750
BEESAT 3 21 Feb 06:01:31 06:04:33 22° 111° (ESE) 06:07:38 437.485
XW-2C 21 Feb 06:04:51 06:08:41 84° 284° (WNW) 06:12:28 145.795 - 145.815
LilacSat-2 21 Feb 06:16:30 06:20:17 54° 284° (WNW) 06:23:59 437.200
BEESAT 2 21 Feb 06:29:23 06:32:04 18° 109° (ESE) 06:34:47 435.950
NUDT-PHONESAT 21 Feb 06:34:29 06:38:01 38° 285° (WNW) 06:41:29 437.300
CUTE 1.7 + AOD 2 21 Feb 06:38:30 06:41:32 19° 95° (E) 06:44:33 437.475
HO-68 21 Feb 06:51:01 06:57:32 37° 99° (E) 07:04:01 435.675
STRAND 1 21 Feb 07:18:14 07:22:49 34° 262° (W) 07:27:28 437.568
DOVE 4 21 Feb 07:21:13 07:23:16 13° 291° (WNW) 07:25:23 437.250
ZACube-1 21 Feb 07:28:27 07:29:01 10° 92° (E) 07:29:36 437.345
XW-2A 21 Feb 07:30:10 07:33:26 40° 285° (WNW) 07:36:40 145.665 - 145.685
CUTE-I 21 Feb 07:36:46 07:39:39 15° 294° (WNW) 07:42:33 437.470
BEESAT 3 21 Feb 07:39:05 07:42:03 20° 304° (NW) 07:45:02 437.485
CUBEBUG 2 21 Feb 07:41:29 07:46:07 51° 99° (E) 07:50:42 437.445
SEEDS 21 Feb 07:44:02 07:48:13 87° 100° (E) 07:52:21 437.485
AAUSAT CUBESAT 2 21 Feb 07:47:52 07:51:45 41° 99° (E) 07:55:36 437.432
Tancredo 1 21 Feb 07:49:25 07:52:08 25° 128° (SE) 07:54:51 437.200
SO-50 21 Feb 08:06:02 08:10:19 44° 59° (ENE) 08:14:36 436.795
BEESAT 2 21 Feb 08:06:18 08:09:36 25° 303° (WNW) 08:12:58 435.950
CUTE 1.7 + AOD 2 21 Feb 08:13:50 08:17:16 24° 288° (WNW) 08:20:40 437.475
FO-29 21 Feb 08:16:07 08:17:53 11° 57° (ENE) 08:19:40 435.910
AO-73 21 Feb 08:16:27 08:20:42 38° 98° (E) 08:24:51 145.935
UWE-3 21 Feb 08:29:02 08:33:42 73° 283° (WNW) 08:38:17 435.000/436.395/437.385
Oscar 11 21 Feb 08:29:13 08:33:23 46° 100° (E) 08:37:30 .
DELFI C3 21 Feb 08:30:17 08:31:25 11° 94° (E) 08:32:33 145.870
HO-68 21 Feb 08:38:50 08:45:03 33° 293° (WNW) 08:51:14 435.675
ISS 21 Feb 08:48:23 08:51:37 55° 316° (NW) 08:54:52 437.550
PRISM 21 Feb 08:55:12 08:59:15 63° 259° (WSW) 09:03:18 437.425
ZACube-1 21 Feb 09:01:05 09:05:32 53° 285° (WNW) 09:09:53 437.345
O/OREOS (USA 219) 21 Feb 09:03:03 09:07:15 35° 68° (ENE) 09:11:27 437.305
YUBILEINY 21 Feb 09:06:48 09:12:24 19° 82° (E) 09:17:59 435.215
UNISAT 6 21 Feb 09:14:15 09:18:36 69° 77° (ENE) 09:23:07 437.425
TIGRISAT 21 Feb 09:16:03 09:20:24 67° 76° (ENE) 09:24:52 435.000
CUBEBUG 2 21 Feb 09:20:06 09:22:12 13° 293° (WNW) 09:24:19 437.445
AAUSAT CUBESAT 2 21 Feb 09:25:28 09:26:47 11° 292° (WNW) 09:28:05 437.432
Tancredo 1 21 Feb 09:25:50 09:28:23 21° 322° (NW) 09:30:55 437.200
SO-50 21 Feb 09:48:17 09:50:20 13° 252° (WSW) 09:52:22 436.795
AO-73 21 Feb 09:53:58 09:56:32 15° 291° (WNW) 09:59:04 145.935
POLYITAN 1 21 Feb 09:54:21 09:56:19 13° 68° (ENE) 09:58:17 437.675
FO-29 21 Feb 09:54:49 10:01:26 76° 74° (ENE) 10:08:53 435.910
QB50P2 21 Feb 09:56:35 09:59:02 15° 69° (ENE) 10:01:29 145.880/145.840
NANOSAT C BR1 21 Feb 09:58:19 10:00:18 13° 68° (ENE) 10:02:17 145.865
DELFI C3 21 Feb 10:02:42 10:06:17 35° 286° (WNW) 10:09:52 145.870
Oscar 11 21 Feb 10:07:41 10:09:02 11° 292° (WNW) 10:10:22 .
O/OREOS (USA 219) 21 Feb 10:43:34 10:46:18 16° 260° (W) 10:49:00 437.305
BUGSAT 1 21 Feb 10:48:52 10:51:07 15° 69° (ENE) 10:53:23 437.445
AIST 2D 21 Feb 10:56:03 10:59:27 47° 260° (W) 11:02:54 435.315
YUBILEINY 21 Feb 10:59:26 11:08:13 71° 277° (W) 11:17:02 435.215
DUCHIFAT 1 21 Feb 11:06:07 11:10:17 89° 75° (ENE) 11:14:30 145.980
EO-79 21 Feb 11:11:28 11:15:37 63° 259° (WSW) 11:19:49 145.935-145.965
SPROUT 21 Feb 11:14:12 11:16:42 15° 95° (E) 11:19:12 437.525
Oscar 19 21 Feb 11:17:53 11:18:35 10° 64° (ENE) 11:19:17 437.125/150
ESTCUBE 1 21 Feb 11:20:35 11:25:04 86° 108° (ESE) 11:29:32 437.505/2401.250
50 SAT 21 Feb 11:25:20 11:27:16 14° 96° (E) 11:29:12 437.505
POLYITAN 1 21 Feb 11:27:47 11:31:42 38° 261° (W) 11:35:40 437.675
QB50P2 21 Feb 11:30:43 11:34:30 32° 262° (W) 11:38:18 145.880/145.840
NANOSAT C BR1 21 Feb 11:31:45 11:35:38 37° 261° (W) 11:39:32 145.865
FO-29 21 Feb 11:43:45 11:47:12 14° 271° (W) 11:50:49 435.910
VELOX 1 21 Feb 12:05:56 12:10:21 88° 103° (ESE) 12:14:46 145.980
DX 1 21 Feb 12:12:55 12:17:02 41° 100° (E) 12:21:07 434.975-435.025
BUGSAT 1 21 Feb 12:22:38 12:26:10 30° 262° (W) 12:29:45 437.445
UKube-1 21 Feb 12:34:10 12:38:23 52° 101° (E) 12:42:35 .
SPROUT 21 Feb 12:48:46 12:52:38 33° 287° (WNW) 12:56:29 437.525
Oscar 19 21 Feb 12:52:03 12:57:13 73° 258° (WSW) 13:02:22 437.125/150
50 SAT 21 Feb 12:57:40 13:00:19 21° 287° (WNW) 13:02:57 437.505
Gurwin Techsat 1B 21 Feb 13:00:37 13:05:53 71° 75° (ENE) 13:11:10 435.225
ITAMSAT 1 21 Feb 13:18:10 13:21:16 16° 66° (ENE) 13:24:22 435.822/435.867
AO-85 21 Feb 13:49:03 13:52:21 25° 58° (ENE) 13:55:41 145.980
DX 1 21 Feb 13:50:47 13:52:48 13° 292° (WNW) 13:54:49 434.975-435.025
AO-7 21 Feb 13:56:30 14:04:14 44° 66° (ENE) 14:11:59 .
ITUPSAT 1 21 Feb 14:02:57 14:07:06 29° 98° (E) 14:11:13 437.325
BEESAT 21 Feb 14:12:21 14:16:49 38° 99° (E) 14:21:13 436.000
UKube-1 21 Feb 14:13:23 14:13:54 10° 293° (WNW) 14:14:25 .
ITAMSAT 1 21 Feb 14:55:18 15:00:17 48° 260° (W) 15:05:18 435.822/435.867
MOZHAYETS 4 21 Feb 15:12:27 15:17:01 62° 101° (E) 15:21:32
PCSat 21 Feb 15:14:44 15:17:33 14° 104° (ESE) 15:20:22 145.827
ISS 21 Feb 15:21:57 15:23:17 12° 33° (NNE) 15:24:37 437.550
AO-85 21 Feb 15:29:50 15:32:30 18° 249° (WSW) 15:35:14 145.980
ITUPSAT 1 21 Feb 15:41:03 15:44:43 22° 290° (WNW) 15:48:21 437.325
AO-7 21 Feb 15:49:33 15:56:56 35° 260° (W) 16:04:22 .
BEESAT 21 Feb 15:51:11 15:54:12 17° 292° (WNW) 15:57:15 436.000
Tancredo 1 21 Feb 15:56:46 15:59:29 25° 40° (NE) 16:02:12 437.200
BEESAT 3 21 Feb 16:00:06 16:03:48 35° 59° (ENE) 16:07:29 437.485
CUBESAT XI-V 21 Feb 16:00:24 16:04:19 28° 97° (E) 16:08:13 437.345
KKS-1 21 Feb 16:15:19 16:19:47 77° 103° (ESE) 16:24:15 437.445
XW-2F 21 Feb 16:27:21 16:28:56 12° 69° (ENE) 16:30:30 145.980 - 146.000
BEESAT 2 21 Feb 16:28:42 16:32:17 29° 58° (ENE) 16:35:49 435.950
XW-2D 21 Feb 16:28:50 16:30:50 14° 70° (ENE) 16:32:49 145.860 - 145.880
KAITUO 1B 21 Feb 16:30:35 16:31:34 11° 69° (ENE) 16:32:32 145.475/437.950
XW-2B 21 Feb 16:33:27 16:35:45 15° 70° (ENE) 16:38:02 145.730 - 145.750
XW-2C 21 Feb 16:41:18 16:44:07 20° 72° (ENE) 16:46:57 145.795 - 145.815
DOVE 4 21 Feb 16:42:35 16:45:55 24° 72° (ENE) 16:49:13 437.250
LilacSat-2 21 Feb 16:52:50 16:56:12 29° 74° (ENE) 16:59:36 437.200
PCSat 21 Feb 16:55:07 17:00:24 55° 297° (WNW) 17:05:43 145.827
ISS 21 Feb 16:56:48 17:00:00 58° 229° (SW) 17:03:11 437.550
STARS 21 Feb 17:01:39 17:06:04 72° 284° (WNW) 17:10:29 437.465
NUDT-PHONESAT 21 Feb 17:08:09 17:11:35 35° 75° (ENE) 17:15:02 437.300
RS-15 21 Feb 17:08:35 17:20:07 66° 111° (ESE) 17:32:11 29.354- 29.394
CUTE-I 21 Feb 17:11:04 17:16:12 52° 73° (ENE) 17:21:22 437.470
HO-68 21 Feb 17:16:14 17:20:10 16° 61° (ENE) 17:24:06 435.675
M-CUBED/EXP-1 PRIME 21 Feb 17:20:44 17:24:29 71° 287° (WNW) 17:28:34 437.505
Tancredo 1 21 Feb 17:33:19 17:35:38 18° 233° (SW) 17:37:55 437.200
CUBESAT XI-V 21 Feb 17:38:04 17:41:28 21° 290° (WNW) 17:44:52 437.345
BEESAT 3 21 Feb 17:39:11 17:41:02 13° 252° (WSW) 17:42:53 437.485
XW-2A 21 Feb 17:56:31 17:59:09 22° 73° (ENE) 18:01:50 145.665 - 145.685
STRAND 1 21 Feb 17:58:08 17:59:28 11° 93° (E) 18:00:48 437.568
XW-2F 21 Feb 17:59:17 18:02:43 32° 262° (W) 18:06:12 145.980 - 146.000
XW-2D 21 Feb 18:01:23 18:04:43 28° 263° (W) 18:08:05 145.860 - 145.880
KAITUO 1B 21 Feb 18:01:41 18:05:11 36° 261° (W) 18:08:43 145.475/437.950
